Tracking 30685 objects as of 18-Jun-2025
HD Live streaming from Space Station
objects crossing your sky now

NOAA 16 DEB

Track NOAA 16 DEB now!
10-day predictions


NORAD ID: 41052
Int'l Code: 2000-055K
Perigee: 753.7 km
Apogee: 992.9 km
Inclination: 98.6 °
Period: 102.3 minutes
Semi major axis: 7244 km
RCS: Unknown
Launch date: September 21, 2000
Source: United States (US)
Launch site: AIR FORCE WESTERN TEST RANGE (AFWTR)

Note: This is SATELLITE DEBRIS
Your satellite tracking list
Your tracking list is empty




NASA's NSSDC Master Catalog

Two Line Element Set (TLE):
1 41052U 00055K   25169.00914982  .00000692  00000-0  37993-3 0  9999
2 41052  98.6182 191.5938 0165094 142.4222 218.8621 14.08021816490446
Source of the keplerian elements: AFSPC